[[{"header":{"parameterUnit":"m.s-1","parameterCategory":2,"la1":30.2991,"la2":30.254,"lo1":-89.0895,"lo2":-89.0444,"dy":0.0017,"dx":0.0017,"nx":28,"ny":28,"refTime":"2025-12-30T03:00:00:Z","depth":"0","parameterNumber":2,"parameterNumberName":"U-component_of_CURRENTS"},"data":[0,0,0,0,0,0,0,0,0,0,0,0,0,0,0,0,0,0,0,0,0,0,0,0,0,0,0,0,0,0,0,0,0,0,0,0,0,0,0,0,0,0,0,0,0,0,0,0,0,0,0,0,0,0,0,0,0,0,-0.3187,-0.3187,0,-0.3216,-0.3216,-0.3216,-0.3215,-0.3215,-0.3215,-0.3215,-0.3221,-0.3221,-0.3221,0,0,0,0,0,0,0,0,0,0,0,0,0,-0.3107,-0.3108,-0.3187,-0.3187,-0.3188,-0.3216,-0.3216,-0.3216,-0.3215,-0.3215,-0.3215,-0.3215,-0.3221,-0.3221,-0.3222,0,0,0,0,0,0,0,0,0,0,0,0,0,-0.3136,-0.3109,-0.3187,-0.3194,-0.3195,-0.3216,-0.3216,-0.3216,-0.3215,-0.3215,-0.3215,-0.3215,-0.3221,-0.3221,-0.3222,-0.3226,0,0,-0.3223,-0.3223,0,0,0,0,0,0,0,0,-0.3134,-0.3138,-0.3192,-0.3193,-0.3195,-0.3215,-0.3191,-0.322,-0.3215,-0.3203,-0.3215,-0.3215,-0.322,-0.322,-0.3221,-0.3226,-0.3226,-0.3223,-0.3223,-0.3223,-0.3223,0,0,0,0,0,0,0,-0.3132,-0.3137,-0.3194,-0.3193,-0.3195,-0.3188,-0.3192,-0.3196,-0.3208,-0.3204,-0.3205,-0.3215,-0.322,-0.322,-0.3221,-0.3226,-0.3223,-0.3223,-0.3223,-0.3223,-0.322,-0.322,0,0,0,0,0,0,-0.3138,-0.3135,-0.3194,-0.3196,-0.3168,-0.319,-0.3194,-0.3206,-0.3209,-0.321,-0.3215,-0.3215,-0.322,-0.322,-0.3221,-0.3229,-0.3223,-0.3223,-0.3223,-0.322,-0.322,-0.322,0,0,0,0,0,0,-0.3136,-0.3143,-0.3192,-0.3169,-0.3175,-0.3192,-0.3205,-0.3206,-0.3209,-0.3218,-0.3218,-0.3216,-0.322,-0.322,-0.3218,-0.3229,-0.3223,-0.3224,-0.3221,-0.322,-0.322,-0.3244,0,0,0,0,0,0,-0.3134,-0.3142,-0.3143,-0.317,-0.3177,-0.3198,-0.3205,-0.3207,-0.3217,-0.3217,-0.3219,-0.322,-0.322,-0.3217,-0.3218,-0.323,-0.3224,-0.3221,-0.322,-0.322,-0.3243,-0.3244,-0.3245,0,0,0,0,0,-0.3131,-0.3131,-0.3143,-0.3149,-0.3181,-0.3198,-0.3201,-0.321,-0.3217,-0.3212,-0.3214,-0.322,-0.3214,-0.3217,-0.3218,-0.323,-0.3221,-0.3221,-0.322,-0.3243,-0.3244,-0.3245,0,0,0,0,0,0,-0.3093,-0.3132,-0.3145,-0.3157,-0.3175,-0.32,-0.3195,-0.3211,-0.321,-0.3207,-0.3217,-0.3217,-0.3219,-0.3216,-0.3219,-0.3225,-0.3219,-0.3218,-0.3236,-0.3237,-0.3237,-0.3239,-0.3224,0,0,0,0,0,-0.3088,-0.3098,-0.3135,-0.3141,-0.3151,-0.3176,-0.3182,-0.3193,-0.3203,-0.3203,-0.3208,-0.321,-0.3217,-0.3219,-0.3218,-0.3222,-0.3215,-0.3229,-0.323,-0.323,-0.3231,-0.3238,-0.324,-0.3217,-0.3217,-0.3217,0,0,-0.3077,-0.3097,-0.3103,-0.3133,-0.3146,-0.3167,-0.3177,-0.3187,-0.3205,-0.3204,-0.3212,-0.3212,-0.3217,-0.3222,-0.3223,-0.3221,-0.3227,-0.323,-0.3231,-0.323,-0.3238,-0.324,-0.3242,-0.3217,-0.3217,-0.3217,0,0,-0.3057,-0.3076,-0.3079,-0.3099,-0.3125,-0.3147,-0.3154,-0.3179,-0.3187,-0.32,-0.3205,-0.321,-0.3216,-0.3225,-0.3233,-0.3236,-0.3231,-0.3233,-0.3244,-0.3251,-0.3254,-0.3256,-0.323,-0.3229,-0.3236,-0.3236,-0.3236,0,-0.304,-0.3057,-0.308,-0.3094,-0.3113,-0.3143,-0.3158,-0.3176,-0.3196,-0.3208,-0.32,-0.3223,-0.3222,-0.3249,-0.3244,-0.3241,-0.3229,-0.3244,-0.3254,-0.3256,-0.3258,-0.3231,-0.323,-0.3237,-0.3237,-0.3236,-0.3236,0,-0.303,-0.3048,-0.3049,-0.3085,-0.3106,-0.3118,-0.3161,-0.3176,-0.3194,-0.3215,-0.3235,-0.3235,-0.325,-0.3252,-0.3248,-0.3265,-0.3246,-0.3255,-0.3257,-0.3262,-0.3232,-0.3231,-0.3238,-0.3238,-0.3238,-0.3237,0,0,-0.2978,-0.3034,-0.3033,-0.3054,-0.3104,-0.3119,-0.3157,-0.3197,-0.3227,-0.3238,-0.3269,-0.3276,-0.3278,-0.3284,-0.3286,-0.3289,-0.3281,-0.3273,-0.3273,-0.3254,-0.3271,-0.3171,-0.316,-0.3295,-0.3295,-0.3296,-0.3238,0,-0.2961,-0.2985,-0.3023,-0.3053,-0.3071,-0.3124,-0.3161,-0.3203,-0.3235,-0.3268,-0.3284,-0.3304,-0.3293,-0.3298,-0.3302,-0.3296,-0.3282,-0.3294,-0.3261,-0.3259,-0.3178,-0.3157,-0.3005,-0.2934,-0.3237,-0.3237,-0.3237,0,-0.293,-0.2957,-0.298,-0.3048,-0.3062,-0.3087,-0.3154,-0.3192,-0.3256,-0.3282,-0.3313,-0.3329,-0.3343,-0.3327,-0.3318,-0.3326,-0.329,-0.3277,-0.3275,-0.3174,-0.3159,-0.298,-0.292,-0.288,-0.3235,-0.3235,-0.3235,0,-0.2864,-0.2923,-0.294,-0.2961,-0.3044,-0.3065,-0.3108,-0.3182,-0.322,-0.3283,-0.3313,-0.3344,-0.3351,-0.3337,-0.3306,-0.3312,-0.3281,-0.3291,-0.3164,-0.3156,-0.3015,-0.2993,-0.2918,-0.3265,-0.3266,-0.3266,-0.3266,0,-0.2822,-0.2833,-0.2909,-0.2917,-0.2946,-0.302,-0.3059,-0.3116,-0.3197,-0.3229,-0.3302,-0.3324,-0.3354,-0.3346,-0.3311,-0.3224,-0.3284,-0.3151,-0.3135,-0.3014,-0.2994,-0.2944,-0.2972,-0.3263,-0.3264,-0.3264,-0.3265,0,-0.2729,-0.2784,-0.2805,-0.2886,-0.2909,-0.2922,-0.3015,-0.3045,-0.3143,-0.3188,-0.3206,-0.3302,-0.3289,-0.3297,-0.3269,-0.3213,-0.3082,-0.3104,-0.2941,-0.2906,-0.2736,-0.2772,-0.269,-0.2603,-0.2949,-0.2946,-0.2943,0,-0.268,-0.268,-0.2751,-0.2757,-0.2785,-0.2829,-0.2857,-0.2982,-0.3018,-0.3155,-0.3157,-0.3203,-0.3195,-0.3136,-0.3044,-0.2952,-0.296,-0.2766,-0.2748,-0.2687,-0.2718,-0.2753,-0.2689,-0.2563,-0.2558,-0.2554,-0.255,0,-0.2575,-0.2597,-0.2614,-0.2632,-0.2654,-0.2691,-0.2743,-0.2779,-0.2916,-0.2973,-0.3029,-0.3047,-0.3006,-0.2868,-0.2771,-0.2691,-0.2675,-0.2671,-0.266,-0.2441,-0.2425,-0.2345,-0.2635,-0.2512,-0.2516,-0.2519,-0.2521,-0.2522,-0.2475,-0.2459,-0.2478,-0.2479,-0.2506,-0.2518,-0.2501,-0.259,-0.2638,-0.2708,-0.282,-0.2828,-0.2748,-0.2586,-0.2483,-0.2268,-0.2378,-0.2201,-0.2256,-0.2303,-0.2193,-0.2379,-0.2214,-0.2216,-0.2218,-0.222,-0.2221,0,-0.234,-0.2331,-0.2323,-0.232,-0.2282,-0.2352,-0.2387,-0.2355,-0.2354,-0.2493,-0.2528,-0.2541,-0.2351,-0.2272,-0.205,-0.1909,-0.1845,-0.1863,-0.1883,-0.1841,-0.2025,-0.1979,-0.1694,-0.1694,-0.1694,-0.1694,-0.1695,-0.1695,-0.2268,-0.2202,-0.2196,-0.2084,-0.2078,-0.1987,-0.1971,-0.1962,-0.2019,-0.2077,-0.2176,-0.2295,-0.2217,-0.2167,-0.1888,-0.1747,-0.1693,-0.1624,-0.1679,-0.1825,-0.1862,-0.1897,-0.1858,-0.1553,-0.1553,-0.1394,-0.1393,-0.1392]},{"header":{"parameterUnit":"m.s-1","parameterCategory":2,"la1":30.2991,"la2":30.254,"lo1":-89.0895,"lo2":-89.0444,"dy":0.0017,"dx":0.0017,"nx":28,"ny":28,"refTime":"2025-12-30T03:00:00:Z","depth":"0","parameterNumber":3,"parameterNumberName":"V-component_of_CURRENTS"},"data":[0,0,0,0,0,0,0,0,0,0,0,0,0,0,0,0,0,0,0,0,0,0,0,0,0,0,0,0,0,0,0,0,0,0,0,0,0,0,0,0,0,0,0,0,0,0,0,0,0,0,0,0,0,0,0,0,0,0,-0.0545,-0.0544,0,-0.0438,-0.0437,-0.0436,-0.0371,-0.037,-0.037,-0.037,-0.0245,-0.0242,-0.0239,0,0,0,0,0,0,0,0,0,0,0,0,0,-0.0614,-0.0613,-0.0545,-0.0544,-0.0542,-0.0438,-0.0437,-0.0435,-0.0371,-0.037,-0.037,-0.037,-0.0246,-0.0242,-0.0239,0,0,0,0,0,0,0,0,0,0,0,0,0,-0.0554,-0.0613,-0.0545,-0.0497,-0.0492,-0.0438,-0.0437,-0.0435,-0.0371,-0.037,-0.037,-0.0369,-0.0247,-0.0243,-0.0238,-0.0221,0,0,-0.0225,-0.0223,0,0,0,0,0,0,0,0,-0.0557,-0.0551,-0.0506,-0.05,-0.0494,-0.0417,-0.0415,-0.0362,-0.0371,-0.0417,-0.037,-0.0369,-0.0301,-0.0292,-0.0274,-0.0215,-0.021,-0.0224,-0.0221,-0.022,-0.0218,0,0,0,0,0,0,0,-0.0562,-0.0555,-0.0503,-0.0504,-0.0497,-0.0454,-0.0445,-0.0405,-0.0363,-0.0413,-0.0408,-0.0396,-0.0298,-0.0278,-0.027,-0.0208,-0.0224,-0.022,-0.0218,-0.0216,-0.0122,-0.0123,0,0,0,0,0,0,-0.0579,-0.0559,-0.0506,-0.05,-0.0525,-0.0453,-0.0444,-0.0443,-0.0364,-0.0351,-0.0396,-0.0393,-0.0286,-0.0276,-0.0266,-0.0243,-0.022,-0.0215,-0.0213,-0.0122,-0.0122,-0.0123,0,0,0,0,0,0,-0.0581,-0.0575,-0.0511,-0.0526,-0.0515,-0.0453,-0.0452,-0.0441,-0.0421,-0.0351,-0.0338,-0.0388,-0.0285,-0.0272,-0.0235,-0.0238,-0.0213,-0.0209,-0.0122,-0.0122,-0.0123,-0.0197,0,0,0,0,0,0,-0.0583,-0.0577,-0.0584,-0.0528,-0.0514,-0.0486,-0.0452,-0.0439,-0.0414,-0.0408,-0.034,-0.0327,-0.0284,-0.0242,-0.023,-0.0231,-0.0206,-0.0122,-0.0122,-0.0122,-0.0194,-0.02,-0.0205,0,0,0,0,0,-0.0586,-0.0599,-0.0585,-0.0578,-0.0526,-0.0486,-0.0475,-0.0429,-0.0414,-0.0409,-0.0365,-0.0329,-0.0236,-0.0239,-0.0225,-0.0225,-0.0121,-0.0122,-0.0122,-0.0192,-0.0199,-0.0205,0,0,0,0,0,0,-0.0627,-0.0592,-0.0575,-0.0576,-0.0537,-0.0475,-0.0467,-0.0436,-0.0397,-0.0394,-0.0332,-0.0317,-0.0288,-0.0246,-0.0251,-0.0199,-0.0173,-0.0171,-0.0231,-0.0236,-0.0241,-0.0256,-0.0202,0,0,0,0,0,-0.0642,-0.0646,-0.0597,-0.0596,-0.0582,-0.0527,-0.0506,-0.0475,-0.0431,-0.0413,-0.0366,-0.0317,-0.0279,-0.0251,-0.0213,-0.0181,-0.0135,-0.0172,-0.0177,-0.0182,-0.0184,-0.0127,-0.0128,-0.0124,-0.0124,-0.0124,0,0,-0.0655,-0.0637,-0.0637,-0.0605,-0.0573,-0.0563,-0.0514,-0.0488,-0.0475,-0.0406,-0.0381,-0.0337,-0.0277,-0.0247,-0.0229,-0.021,-0.0157,-0.0183,-0.0187,-0.0187,-0.0128,-0.0128,-0.0129,-0.0125,-0.0124,-0.0124,0,0,-0.0685,-0.0671,-0.0685,-0.0663,-0.0624,-0.059,-0.0588,-0.0532,-0.0505,-0.0473,-0.0425,-0.0383,-0.0322,-0.0276,-0.0246,-0.0255,-0.0194,-0.0244,-0.0272,-0.0217,-0.0217,-0.0216,-0.0154,-0.0147,-0.0238,-0.0239,-0.0239,0,-0.0703,-0.0715,-0.0679,-0.0685,-0.0676,-0.061,-0.0619,-0.058,-0.0518,-0.0499,-0.0477,-0.0386,-0.0335,-0.0291,-0.0292,-0.0266,-0.0225,-0.0255,-0.0224,-0.0223,-0.0221,-0.0157,-0.0149,-0.0242,-0.0242,-0.0241,-0.0241,0,-0.0741,-0.0751,-0.0757,-0.075,-0.0733,-0.0729,-0.0677,-0.0653,-0.0614,-0.057,-0.0521,-0.0448,-0.0392,-0.0367,-0.033,-0.0292,-0.0264,-0.0246,-0.0212,-0.0226,-0.0158,-0.0147,-0.0247,-0.0246,-0.0245,-0.0244,0,0,-0.0778,-0.0787,-0.0788,-0.0806,-0.0772,-0.0764,-0.0745,-0.0707,-0.0695,-0.0625,-0.06,-0.0522,-0.0475,-0.0438,-0.038,-0.0323,-0.0269,-0.0283,-0.0279,-0.0228,-0.0142,-0.0093,-0.0076,-0.0249,-0.0248,-0.0247,-0.0099,0,-0.0819,-0.0864,-0.0846,-0.088,-0.09,-0.0848,-0.0838,-0.0793,-0.074,-0.0697,-0.0604,-0.056,-0.0503,-0.0476,-0.0413,-0.0311,-0.0247,-0.031,-0.0131,-0.0125,-0.0085,-0.0064,-0.0031,0.0105,-0.0089,-0.0087,-0.0086,0,-0.086,-0.089,-0.094,-0.0962,-0.0964,-0.0967,-0.0945,-0.0926,-0.0843,-0.0799,-0.0726,-0.065,-0.0556,-0.0509,-0.0334,-0.038,-0.027,-0.0183,-0.0175,-0.0096,-0.0057,0.0088,0.0132,0.0336,-0.0069,-0.0071,-0.0072,0,-0.0919,-0.0953,-0.1003,-0.1011,-0.1018,-0.1025,-0.1018,-0.0958,-0.0947,-0.0858,-0.0831,-0.0709,-0.0643,-0.0501,-0.0314,-0.0326,-0.0114,-0.0106,0.0049,0.0054,0.0136,0.0146,0.0393,0.0022,0.0022,0.0021,0.0021,0,-0.0975,-0.1013,-0.1038,-0.1069,-0.1123,-0.1095,-0.1121,-0.1087,-0.1035,-0.1026,-0.0892,-0.0846,-0.064,-0.049,-0.0328,-0.0101,-0.0118,0.0054,0.0098,0.0111,0.0117,0.0341,0.0424,0.0027,0.0026,0.0025,0.0024,0,-0.1031,-0.1045,-0.1111,-0.1144,-0.1157,-0.1195,-0.1208,-0.1219,-0.1153,-0.1132,-0.1107,-0.0942,-0.0743,-0.0515,-0.0264,-0.0115,0.0227,0.0181,0.0188,0.023,0.0541,0.0617,0.089,0.1015,0.0365,0.0367,0.0369,0,-0.1061,-0.1103,-0.1179,-0.1228,-0.1247,-0.1293,-0.1323,-0.1286,-0.1292,-0.1191,-0.1186,-0.0986,-0.0833,-0.0429,-0.0131,0.0185,0.0342,0.0402,0.0385,0.0581,0.0698,0.0739,0.0827,0.0471,0.0474,0.0476,0.0478,0,-0.1122,-0.1151,-0.1211,-0.1318,-0.1374,-0.1433,-0.1466,-0.1491,-0.1437,-0.1392,-0.1292,-0.1154,-0.0746,-0.0372,0.0055,0.0247,0.0557,0.0452,0.0662,0.0812,0.0868,0.1001,0.0356,0.0496,0.0494,0.0493,0.0492,0.0491,-0.1159,-0.1225,-0.131,-0.1408,-0.1482,-0.1556,-0.1603,-0.1612,-0.1614,-0.1537,-0.1387,-0.1145,-0.0569,0.0036,0.0266,0.0773,0.0732,0.092,0.1,0.1026,0.1142,0.0537,0.0715,0.0715,0.0714,0.0714,0.0713,0,-0.1203,-0.1286,-0.1392,-0.1511,-0.1609,-0.1619,-0.1687,-0.1711,-0.1716,-0.1575,-0.1438,-0.0816,-0.0245,0.0301,0.1008,0.13,0.1365,0.1453,0.1531,0.1599,0.1082,0.108,0.1338,0.1337,0.1337,0.1337,0.1337,0.1337,-0.1229,-0.1346,-0.1413,-0.1589,-0.1671,-0.1774,-0.1811,-0.182,-0.1736,-0.1492,-0.1155,-0.0881,-0.0027,0.1102,0.1765,0.1834,0.2084,0.2062,0.2208,0.1858,0.1815,0.1773,0.1794,0.2197,0.2198,0.2697,0.2702,0.2706]}],[{"header":{"parameterUnit":"m.s-1","parameterCategory":2,"la1":30.2991,"la2":30.254,"lo1":-89.0895,"lo2":-89.0444,"dy":0.0017,"dx":0.0017,"nx":28,"ny":28,"refTime":"2025-12-30T03:00:00:Z","depth":"2","parameterNumber":2,"parameterNumberName":"U-component_of_CURRENTS"},"data":[0,0,0,0,0,0,0,0,0,0,0,0,0,0,0,0,0,0,0,0,0,0,0,0,0,0,0,0,0,0,0,0,0,0,0,0,0,0,0,0,0,0,0,0,0,0,0,0,0,0,0,0,0,0,0,0,0,0,-0.3141,-0.3141,0,-0.317,-0.317,-0.317,-0.3167,-0.3167,-0.3167,-0.3167,-0.3176,-0.3177,-0.3177,0,0,0,0,0,0,0,0,0,0,0,0,0,-0.3064,-0.3065,-0.3141,-0.3141,-0.3142,-0.317,-0.317,-0.317,-0.3167,-0.3167,-0.3167,-0.3167,-0.3176,-0.3177,-0.3177,0,0,0,0,0,0,0,0,0,0,0,0,0,-0.3092,-0.3066,-0.3141,-0.3147,-0.3148,-0.317,-0.317,-0.317,-0.3167,-0.3167,-0.3167,-0.3167,-0.3176,-0.3177,-0.3177,-0.3184,0,0,-0.3179,-0.3179,0,0,0,0,0,0,0,0,-0.3091,-0.3095,-0.3145,-0.3147,-0.3148,-0.3168,-0.3147,-0.3175,-0.3167,-0.3156,-0.3167,-0.3167,-0.3174,-0.3175,-0.3176,-0.3184,-0.3184,-0.3179,-0.3179,-0.3179,-0.3179,0,0,0,0,0,0,0,-0.3089,-0.3093,-0.3148,-0.3146,-0.3148,-0.3142,-0.3146,-0.3152,-0.3162,-0.3157,-0.3158,-0.3167,-0.3174,-0.3175,-0.3176,-0.3185,-0.3179,-0.3179,-0.318,-0.318,-0.3184,-0.3184,0,0,0,0,0,0,-0.3094,-0.3092,-0.3148,-0.315,-0.3122,-0.3144,-0.3148,-0.3159,-0.3163,-0.3165,-0.3167,-0.3167,-0.3174,-0.3175,-0.3176,-0.3188,-0.3179,-0.318,-0.318,-0.3184,-0.3184,-0.3184,0,0,0,0,0,0,-0.3092,-0.3099,-0.3146,-0.3124,-0.313,-0.3146,-0.3158,-0.3159,-0.3163,-0.3172,-0.3172,-0.317,-0.3174,-0.3176,-0.3176,-0.3188,-0.318,-0.3181,-0.3185,-0.3184,-0.3184,-0.3208,0,0,0,0,0,0,-0.309,-0.3098,-0.3099,-0.3125,-0.3132,-0.3153,-0.3159,-0.316,-0.3171,-0.3171,-0.3174,-0.3175,-0.3174,-0.3175,-0.3176,-0.3188,-0.3181,-0.3185,-0.3184,-0.3184,-0.3208,-0.3209,-0.321,0,0,0,0,0,-0.3087,-0.3088,-0.3099,-0.3106,-0.3136,-0.3153,-0.3156,-0.3164,-0.3171,-0.3167,-0.317,-0.3175,-0.3173,-0.3175,-0.3177,-0.319,-0.3185,-0.3184,-0.3184,-0.3207,-0.3208,-0.321,0,0,0,0,0,0,-0.3051,-0.3089,-0.3101,-0.3113,-0.3132,-0.3154,-0.3151,-0.3167,-0.3167,-0.3165,-0.3174,-0.3174,-0.3179,-0.3176,-0.3178,-0.3187,-0.318,-0.318,-0.3197,-0.3198,-0.3199,-0.32,-0.3181,0,0,0,0,0,-0.3047,-0.3057,-0.3093,-0.3099,-0.3109,-0.3133,-0.314,-0.3151,-0.3161,-0.3161,-0.3167,-0.317,-0.3178,-0.3181,-0.3181,-0.3188,-0.318,-0.3195,-0.3196,-0.3197,-0.3197,-0.3205,-0.3207,-0.3182,-0.3182,-0.3182,0,0,-0.3036,-0.3056,-0.3062,-0.3092,-0.3105,-0.3125,-0.3135,-0.3145,-0.3163,-0.3163,-0.3173,-0.3174,-0.3179,-0.3185,-0.3188,-0.3186,-0.3195,-0.3196,-0.3198,-0.3197,-0.3205,-0.3207,-0.321,-0.3182,-0.3182,-0.3182,0,0,-0.3018,-0.3036,-0.304,-0.306,-0.3086,-0.3107,-0.3115,-0.314,-0.3149,-0.3163,-0.3168,-0.3175,-0.3183,-0.3192,-0.3199,-0.3205,-0.3199,-0.3203,-0.3214,-0.3222,-0.3225,-0.3227,-0.3202,-0.3202,-0.3206,-0.3206,-0.3206,0,-0.3002,-0.3018,-0.3041,-0.3055,-0.3074,-0.3104,-0.312,-0.3138,-0.3159,-0.3171,-0.3164,-0.3189,-0.3189,-0.3217,-0.3212,-0.321,-0.3199,-0.3213,-0.3225,-0.3227,-0.3229,-0.3203,-0.3202,-0.3207,-0.3207,-0.3207,-0.3207,0,-0.2992,-0.301,-0.3012,-0.3047,-0.3068,-0.3081,-0.3123,-0.314,-0.3159,-0.318,-0.3202,-0.3203,-0.3219,-0.3222,-0.3218,-0.3236,-0.3218,-0.3226,-0.3226,-0.3233,-0.3205,-0.3204,-0.3208,-0.3208,-0.3208,-0.3207,0,0,-0.2942,-0.2997,-0.2996,-0.3017,-0.3067,-0.3082,-0.312,-0.3161,-0.3191,-0.3204,-0.3235,-0.3244,-0.3247,-0.3254,-0.3256,-0.326,-0.3253,-0.3245,-0.3244,-0.3226,-0.3245,-0.3146,-0.3135,-0.3267,-0.3268,-0.3268,-0.3213,0,-0.2926,-0.2949,-0.2987,-0.3016,-0.3034,-0.3087,-0.3125,-0.3167,-0.32,-0.3233,-0.3251,-0.3272,-0.3262,-0.3268,-0.3273,-0.3267,-0.3255,-0.3266,-0.3235,-0.3233,-0.3151,-0.3132,-0.2851,-0.2771,-0.3212,-0.3212,-0.3212,0,-0.2895,-0.2922,-0.2945,-0.3012,-0.3026,-0.3051,-0.3119,-0.3156,-0.3221,-0.3247,-0.3279,-0.3296,-0.3311,-0.3296,-0.329,-0.3297,-0.3263,-0.3251,-0.3249,-0.3149,-0.3133,-0.2838,-0.2753,-0.321,-0.321,-0.321,-0.3211,0,-0.2831,-0.2889,-0.2906,-0.2926,-0.3008,-0.303,-0.3073,-0.3147,-0.3185,-0.3249,-0.3278,-0.3311,-0.332,-0.3308,-0.3279,-0.3285,-0.3256,-0.3266,-0.3141,-0.3133,-0.2882,-0.2851,-0.3242,-0.3242,-0.3242,-0.3242,-0.3242,0,-0.279,-0.28,-0.2876,-0.2884,-0.2913,-0.2987,-0.3026,-0.3083,-0.3163,-0.3195,-0.3269,-0.3291,-0.3323,-0.3317,-0.3284,-0.32,-0.3259,-0.3128,-0.3113,-0.2878,-0.2849,-0.3229,-0.3228,-0.324,-0.3241,-0.3241,-0.3241,0,-0.2699,-0.2753,-0.2773,-0.2854,-0.2877,-0.289,-0.2983,-0.3012,-0.311,-0.3155,-0.3173,-0.3269,-0.3258,-0.3268,-0.3242,-0.3188,-0.3133,-0.3083,-0.2791,-0.2742,-0.3,-0.3001,-0.2938,-0.2934,-0.293,-0.2928,-0.2925,0,-0.2651,-0.2651,-0.2721,-0.2727,-0.2755,-0.2799,-0.2827,-0.2951,-0.2986,-0.3121,-0.3123,-0.317,-0.3156,-0.3102,-0.2984,-0.2889,-0.303,-0.2613,-0.2577,-0.2977,-0.2969,-0.2975,-0.2981,-0.2241,-0.2233,-0.2227,-0.2222,0,-0.2548,-0.257,-0.2587,-0.2605,-0.2627,-0.2663,-0.2714,-0.2748,-0.2883,-0.2935,-0.2989,-0.3001,-0.2936,-0.2712,-0.2607,-0.2527,-0.2611,-0.2481,-0.2962,-0.2377,-0.232,-0.2313,-0.2341,-0.2165,-0.2171,-0.2175,-0.2178,-0.218,-0.2451,-0.2435,-0.2454,-0.2455,-0.2481,-0.2491,-0.2474,-0.2541,-0.2579,-0.2594,-0.2725,-0.2627,-0.2586,-0.2261,-0.2139,-0.2036,-0.2233,-0.214,-0.2159,-0.2185,-0.213,-0.2071,-0.1858,-0.1861,-0.1864,-0.1867,-0.187,0,-0.2312,-0.2309,-0.2301,-0.2298,-0.2252,-0.2329,-0.2361,-0.2297,-0.2263,-0.2288,-0.2272,-0.1994,-0.182,-0.1808,-0.1527,-0.1491,-0.1474,-0.1461,-0.1425,-0.148,-0.153,-0.1443,-0.0987,-0.0985,-0.0983,-0.0981,0,0,-0.2239,-0.2171,-0.2164,-0.2049,-0.2049,-0.1945,-0.1927,-0.186,-0.1823,-0.1709,-0.1625,-0.1688,-0.1725,-0.1339,-0.1253,-0.108,-0.1279,-0.1022,-0.172,-0.173,-0.1778,-0.1899,-0.1825,0,0,0,0,0]},{"header":{"parameterUnit":"m.s-1","parameterCategory":2,"la1":30.2991,"la2":30.254,"lo1":-89.0895,"lo2":-89.0444,"dy":0.0017,"dx":0.0017,"nx":28,"ny":28,"refTime":"2025-12-30T03:00:00:Z","depth":"2","parameterNumber":3,"parameterNumberName":"V-component_of_CURRENTS"},"data":[0,0,0,0,0,0,0,0,0,0,0,0,0,0,0,0,0,0,0,0,0,0,0,0,0,0,0,0,0,0,0,0,0,0,0,0,0,0,0,0,0,0,0,0,0,0,0,0,0,0,0,0,0,0,0,0,0,0,-0.048,-0.0479,0,-0.0375,-0.0374,-0.0373,-0.0307,-0.0307,-0.0306,-0.0306,-0.0184,-0.0181,-0.0178,0,0,0,0,0,0,0,0,0,0,0,0,0,-0.0547,-0.0546,-0.048,-0.0479,-0.0477,-0.0375,-0.0374,-0.0372,-0.0307,-0.0307,-0.0306,-0.0306,-0.0185,-0.0182,-0.0178,0,0,0,0,0,0,0,0,0,0,0,0,0,-0.0488,-0.0546,-0.048,-0.0432,-0.0427,-0.0375,-0.0374,-0.0372,-0.0307,-0.0307,-0.0306,-0.0306,-0.0186,-0.0182,-0.0178,-0.0162,0,0,-0.0164,-0.0163,0,0,0,0,0,0,0,0,-0.0491,-0.0486,-0.0441,-0.0436,-0.043,-0.0353,-0.0352,-0.0301,-0.0308,-0.0353,-0.0306,-0.0305,-0.0239,-0.0231,-0.0213,-0.0157,-0.0151,-0.0164,-0.0161,-0.016,-0.0158,0,0,0,0,0,0,0,-0.0496,-0.0489,-0.0439,-0.0439,-0.0433,-0.0389,-0.0381,-0.0342,-0.0301,-0.0349,-0.0344,-0.0332,-0.0236,-0.0217,-0.0209,-0.015,-0.0164,-0.016,-0.0158,-0.0156,-0.0067,-0.0067,0,0,0,0,0,0,-0.0513,-0.0494,-0.0442,-0.0436,-0.0459,-0.0389,-0.038,-0.0379,-0.0301,-0.0289,-0.0333,-0.0329,-0.0225,-0.0215,-0.0205,-0.0184,-0.016,-0.0155,-0.0153,-0.0066,-0.0067,-0.0067,0,0,0,0,0,0,-0.0515,-0.051,-0.0446,-0.0461,-0.045,-0.0389,-0.0388,-0.0377,-0.0358,-0.0289,-0.0276,-0.0325,-0.0224,-0.0211,-0.0175,-0.0179,-0.0154,-0.015,-0.0066,-0.0066,-0.0067,-0.0141,0,0,0,0,0,0,-0.0517,-0.0511,-0.0518,-0.0463,-0.045,-0.0422,-0.0388,-0.0375,-0.0351,-0.0346,-0.0278,-0.0266,-0.0223,-0.0182,-0.0171,-0.0172,-0.0146,-0.0066,-0.0066,-0.0067,-0.0138,-0.0144,-0.0149,0,0,0,0,0,-0.052,-0.0533,-0.052,-0.0513,-0.0461,-0.0422,-0.0412,-0.0366,-0.0351,-0.0346,-0.0303,-0.0268,-0.0177,-0.0179,-0.0166,-0.0166,-0.0066,-0.0066,-0.0067,-0.0136,-0.0143,-0.0148,0,0,0,0,0,0,-0.056,-0.0526,-0.051,-0.0511,-0.0473,-0.0411,-0.0404,-0.0374,-0.0335,-0.0332,-0.0271,-0.0256,-0.0228,-0.0187,-0.0192,-0.0141,-0.0115,-0.0113,-0.0172,-0.0178,-0.0183,-0.0197,-0.0143,0,0,0,0,0,-0.0575,-0.058,-0.0532,-0.0531,-0.0518,-0.0464,-0.0443,-0.0413,-0.037,-0.0352,-0.0305,-0.0258,-0.022,-0.0193,-0.0155,-0.0125,-0.008,-0.0116,-0.0121,-0.0126,-0.0129,-0.0073,-0.0073,-0.0068,-0.0068,-0.0068,0,0,-0.0588,-0.0571,-0.0572,-0.054,-0.0509,-0.0499,-0.045,-0.0426,-0.0414,-0.0345,-0.0321,-0.0278,-0.0219,-0.0189,-0.0172,-0.0153,-0.0102,-0.0127,-0.0131,-0.0131,-0.0073,-0.0074,-0.0074,-0.0069,-0.0069,-0.0069,0,0,-0.0618,-0.0605,-0.0619,-0.0597,-0.056,-0.0526,-0.0525,-0.047,-0.0443,-0.0413,-0.0366,-0.0324,-0.0265,-0.0219,-0.019,-0.0199,-0.0139,-0.0189,-0.0216,-0.0162,-0.0162,-0.0162,-0.0101,-0.0094,-0.0183,-0.0183,-0.0183,0,-0.0636,-0.0649,-0.0613,-0.062,-0.061,-0.0547,-0.0555,-0.0518,-0.0458,-0.0439,-0.0417,-0.0328,-0.0278,-0.0234,-0.0236,-0.021,-0.017,-0.02,-0.017,-0.0168,-0.0166,-0.0104,-0.0096,-0.0187,-0.0186,-0.0186,-0.0186,0,-0.0674,-0.0684,-0.069,-0.0684,-0.0667,-0.0663,-0.0613,-0.059,-0.0553,-0.0509,-0.0462,-0.0389,-0.0335,-0.0311,-0.0274,-0.0237,-0.0209,-0.0191,-0.0157,-0.0171,-0.0105,-0.0095,-0.0192,-0.0191,-0.019,-0.0189,0,0,-0.0711,-0.0719,-0.072,-0.0738,-0.0705,-0.0698,-0.068,-0.0642,-0.0631,-0.0563,-0.0539,-0.0463,-0.0417,-0.0381,-0.0323,-0.0268,-0.0215,-0.0229,-0.0224,-0.0175,-0.0091,-0.0044,-0.0027,-0.0195,-0.0194,-0.0193,-0.0049,0,-0.075,-0.0795,-0.0777,-0.0811,-0.0831,-0.078,-0.0771,-0.0728,-0.0675,-0.0634,-0.0543,-0.05,-0.0445,-0.0418,-0.0357,-0.0257,-0.0193,-0.0256,-0.0079,-0.0074,-0.0035,-0.0016,-0.0071,0.0056,-0.0039,-0.0037,-0.0036,0,-0.0791,-0.0821,-0.0869,-0.0891,-0.0893,-0.0897,-0.0876,-0.0858,-0.0777,-0.0734,-0.0664,-0.0589,-0.0498,-0.0451,-0.028,-0.0325,-0.0217,-0.0131,-0.0123,-0.0046,-0.0008,0.0055,0.0078,-0.0018,-0.002,-0.0021,-0.0022,0,-0.0848,-0.0883,-0.0932,-0.0939,-0.0947,-0.0954,-0.0948,-0.089,-0.088,-0.0793,-0.0767,-0.0648,-0.0585,-0.0445,-0.0262,-0.0273,-0.0065,-0.0056,0.0095,0.01,0.0106,0.011,0.007,0.007,0.0069,0.0069,0.0068,0,-0.0904,-0.0941,-0.0966,-0.0997,-0.1051,-0.1024,-0.105,-0.1017,-0.0967,-0.0958,-0.0828,-0.0783,-0.0582,-0.0435,-0.0275,-0.0053,-0.007,0.01,0.0143,0.008,0.0079,0.0053,0.0049,0.0074,0.0073,0.0072,0.0071,0,-0.0958,-0.0973,-0.1038,-0.1071,-0.1084,-0.1122,-0.1137,-0.1148,-0.1083,-0.1064,-0.104,-0.0879,-0.0685,-0.0461,-0.0215,-0.0068,0.0137,0.0223,0.0143,0.0174,0.0269,0.0259,0.0397,0.04,0.0403,0.0405,0.0407,0,-0.0988,-0.1029,-0.1106,-0.1154,-0.1174,-0.122,-0.125,-0.1214,-0.122,-0.1122,-0.1118,-0.0924,-0.0772,-0.0377,-0.0104,0.0202,0.0213,0.0347,0.032,0.0275,0.0304,0.029,0.0278,0.0302,0.0303,0.0303,0.0304,0,-0.1048,-0.1077,-0.1136,-0.1244,-0.1299,-0.1357,-0.1391,-0.1415,-0.1363,-0.1316,-0.1219,-0.1084,-0.0705,-0.0381,0.003,0.02,0.029,0.0371,0.0354,0.0224,0.0196,0.022,0.0209,0.0309,0.0309,0.0308,0.0308,0.0308,-0.1085,-0.115,-0.1235,-0.1332,-0.1406,-0.1479,-0.1525,-0.1516,-0.1513,-0.1404,-0.1286,-0.1026,-0.0716,-0.0135,0.0125,0.0374,0.0368,0.0449,0.0442,0.0436,0.0395,0.0373,0.0513,0.0513,0.0514,0.0514,0.0515,0,-0.1118,-0.121,-0.1315,-0.1434,-0.1518,-0.1541,-0.1608,-0.159,-0.1566,-0.1399,-0.1242,-0.086,-0.0485,-0.0151,0.0229,0.0463,0.0426,0.0514,0.0413,0.0406,0.04,0.0354,0.0463,0.0464,0.0464,0.0465,0,0,-0.1142,-0.1252,-0.1318,-0.1486,-0.1577,-0.1652,-0.1689,-0.1624,-0.1497,-0.1307,-0.1099,-0.082,-0.0442,-0.0168,0.0099,0.0294,0.0296,0.0316,0.0331,0.0171,0.0163,0.0335,0.0254,0,0,0,0,0]}],[{"header":{"parameterUnit":"m.s-1","parameterCategory":2,"la1":30.2991,"la2":30.254,"lo1":-89.0895,"lo2":-89.0444,"dy":0.0017,"dx":0.0017,"nx":28,"ny":28,"refTime":"2025-12-30T03:00:00:Z","depth":"4","parameterNumber":2,"parameterNumberName":"U-component_of_CURRENTS"},"data":[0,0,0,0,0,0,0,0,0,0,0,0,0,0,0,0,0,0,0,0,0,0,0,0,0,0,0,0,0,0,0,0,0,0,0,0,0,0,0,0,0,0,0,0,0,0,0,0,0,0,0,0,0,0,0,0,0,0,-0.2071,-0.2072,0,-0.2147,-0.2147,-0.2148,-0.2211,-0.2211,-0.2212,-0.2213,-0.2315,-0.2317,-0.2319,0,0,0,0,0,0,0,0,0,0,0,0,0,-0.1969,-0.197,-0.2071,-0.2072,-0.2073,-0.2147,-0.2147,-0.2148,-0.221,-0.2211,-0.2213,-0.2213,-0.2315,-0.2317,-0.2319,0,0,0,0,0,0,0,0,0,0,0,0,0,-0.2023,-0.197,-0.2071,-0.2115,-0.2119,-0.2146,-0.2147,-0.2148,-0.221,-0.2211,-0.2213,-0.2214,-0.2314,-0.2317,-0.2319,-0.2312,0,0,-0.2328,-0.2329,0,0,0,0,0,0,0,0,-0.202,-0.2027,-0.2107,-0.2112,-0.2117,-0.2172,-0.2149,-0.2205,-0.221,-0.2173,-0.2213,-0.2215,-0.227,-0.2277,-0.2285,-0.2316,-0.2321,-0.2328,-0.233,-0.2331,-0.2332,0,0,0,0,0,0,0,-0.2016,-0.2024,-0.2099,-0.2108,-0.2114,-0.2127,-0.2136,-0.216,-0.2213,-0.2177,-0.2182,-0.2193,-0.2273,-0.2282,-0.2288,-0.2322,-0.2328,-0.2331,-0.2333,-0.2334,-0.2447,-0.2448,0,0,0,0,0,0,-0.2011,-0.202,-0.2096,-0.2101,-0.2073,-0.2128,-0.2138,-0.2152,-0.2212,-0.2223,-0.2192,-0.2196,-0.2276,-0.2284,-0.2292,-0.2378,-0.2331,-0.2334,-0.2336,-0.2445,-0.2447,-0.2448,0,0,0,0,0,0,-0.2008,-0.2017,-0.2093,-0.2064,-0.2075,-0.2128,-0.2143,-0.2152,-0.2201,-0.2224,-0.2235,-0.2237,-0.2278,-0.2288,-0.2346,-0.2379,-0.2335,-0.2338,-0.2444,-0.2446,-0.2448,-0.2491,0,0,0,0,0,0,-0.2005,-0.2015,-0.2038,-0.2064,-0.2077,-0.213,-0.2143,-0.2153,-0.2205,-0.2212,-0.2265,-0.2273,-0.2279,-0.2342,-0.2349,-0.2382,-0.234,-0.2442,-0.2445,-0.2447,-0.2488,-0.2494,-0.2499,0,0,0,0,0,-0.2001,-0.2017,-0.2038,-0.2048,-0.2101,-0.2131,-0.2139,-0.2179,-0.2206,-0.2228,-0.227,-0.2274,-0.2362,-0.2346,-0.2354,-0.2388,-0.2441,-0.2444,-0.2447,-0.2485,-0.2493,-0.2499,0,0,0,0,0,0,-0.1983,-0.2025,-0.205,-0.2079,-0.2115,-0.2143,-0.2169,-0.22,-0.2249,-0.2268,-0.2292,-0.2303,-0.2364,-0.237,-0.2351,-0.2427,-0.2401,-0.2406,-0.2428,-0.2435,-0.2441,-0.2431,-0.2343,0,0,0,0,0,-0.1989,-0.2016,-0.2055,-0.2083,-0.2103,-0.2145,-0.217,-0.2201,-0.224,-0.2265,-0.2304,-0.2342,-0.2373,-0.2402,-0.2426,-0.2472,-0.2454,-0.2498,-0.2504,-0.2508,-0.2506,-0.2514,-0.252,-0.2458,-0.2458,-0.2458,0,0,-0.1993,-0.2018,-0.2037,-0.2083,-0.2114,-0.2147,-0.2164,-0.2211,-0.2251,-0.2267,-0.2342,-0.2366,-0.239,-0.2438,-0.2466,-0.2455,-0.2515,-0.2512,-0.2516,-0.2511,-0.2518,-0.2523,-0.2529,-0.246,-0.2459,-0.2459,0,0,-0.1994,-0.2035,-0.2055,-0.2088,-0.2142,-0.2169,-0.2192,-0.2246,-0.2286,-0.235,-0.237,-0.2417,-0.2474,-0.2492,-0.2507,-0.256,-0.2543,-0.2575,-0.2603,-0.2612,-0.2616,-0.262,-0.2593,-0.2594,-0.2582,-0.2582,-0.2582,0,-0.2,-0.203,-0.2067,-0.2094,-0.2129,-0.2184,-0.2219,-0.2261,-0.2332,-0.2366,-0.2383,-0.2471,-0.2495,-0.2545,-0.2563,-0.2573,-0.2563,-0.2575,-0.2618,-0.2622,-0.2625,-0.2596,-0.2597,-0.2584,-0.2584,-0.2584,-0.2584,0,-0.2005,-0.2049,-0.2064,-0.2121,-0.2163,-0.2202,-0.2263,-0.2319,-0.2378,-0.2416,-0.2494,-0.2527,-0.2576,-0.2594,-0.2597,-0.264,-0.2618,-0.262,-0.2597,-0.2634,-0.2601,-0.2601,-0.2588,-0.2587,-0.2586,-0.2586,0,0,-0.1964,-0.2053,-0.2062,-0.2101,-0.2185,-0.2215,-0.2292,-0.2364,-0.2418,-0.2488,-0.2547,-0.2606,-0.2629,-0.2646,-0.2663,-0.2676,-0.2687,-0.2663,-0.2663,-0.2629,-0.2682,-0.2492,-0.2474,-0.2701,-0.2702,-0.2703,-0.2644,0,-0.1962,-0.2016,-0.2068,-0.2138,-0.2173,-0.2255,-0.2319,-0.2396,-0.2465,-0.2533,-0.2581,-0.264,-0.2648,-0.2678,-0.2695,-0.2695,-0.2692,-0.2701,-0.2657,-0.2655,-0.2477,-0.2469,-0.2705,-0.2643,-0.2643,-0.2643,-0.2643,0,-0.1938,-0.1985,-0.205,-0.2154,-0.2179,-0.2237,-0.2351,-0.2413,-0.2514,-0.2568,-0.2634,-0.2672,-0.2717,-0.2713,-0.2725,-0.2733,-0.2708,-0.2697,-0.2694,-0.25,-0.2465,-0.2604,-0.2643,-0.2643,-0.2643,-0.2643,-0.2643,0,-0.1868,-0.1968,-0.2024,-0.2059,-0.2184,-0.2242,-0.2313,-0.2425,-0.2481,-0.2587,-0.2632,-0.2697,-0.2728,-0.2728,-0.2713,-0.2726,-0.2697,-0.271,-0.2509,-0.2495,-0.2667,-0.2664,-0.2697,-0.2697,-0.2697,-0.2697,-0.2697,0,-0.182,-0.1867,-0.2004,-0.2031,-0.2108,-0.2211,-0.2298,-0.2379,-0.2489,-0.2529,-0.2639,-0.266,-0.2736,-0.2733,-0.2713,-0.259,-0.2695,-0.2492,-0.2463,-0.2685,-0.2684,-0.2666,-0.2663,-0.2695,-0.2695,-0.2696,-0.2696,0,-0.1719,-0.1811,-0.188,-0.2025,-0.2074,-0.2126,-0.2274,-0.2321,-0.2449,-0.2501,-0.2534,-0.2637,-0.2617,-0.2652,-0.2637,-0.2557,-0.2485,-0.2415,-0.2624,-0.2611,-0.2276,-0.2277,-0.2176,-0.2169,-0.2162,-0.2157,-0.2153,0,-0.1667,-0.1694,-0.1848,-0.1888,-0.1959,-0.206,-0.2118,-0.2274,-0.2309,-0.2448,-0.2436,-0.2489,-0.2524,-0.2346,-0.2408,-0.2332,-0.231,-0.2259,-0.2284,-0.2238,-0.2222,-0.2232,-0.2241,-0.2143,-0.2142,-0.214,-0.2138,0,-0.1563,-0.1633,-0.1691,-0.1773,-0.1848,-0.1916,-0.2006,-0.2021,-0.2167,-0.2307,-0.2267,-0.2253,-0.222,-0.22,-0.2153,-0.2109,-0.229,-0.2194,-0.2207,-0.223,-0.2198,-0.219,-0.2205,-0.2117,-0.212,-0.2122,-0.2123,0,-0.1484,-0.1497,-0.1579,-0.1631,-0.1716,-0.1732,-0.1813,-0.1842,-0.1902,-0.2057,-0.2026,-0.2088,-0.2179,-0.2079,-0.2036,-0.1974,-0.195,-0.1894,-0.1923,-0.1947,-0.19,-0.1827,-0.1584,0,0,0,0,0,-0.1395,-0.1387,-0.1425,-0.1476,-0.155,-0.1594,-0.171,-0.1792,-0.1934,-0.1842,-0.1932,-0.1889,-0.1835,-0.1871,-0.1755,-0.1928,-0.1959,-0.1787,-0.1913,-0.1998,-0.2023,-0.199,0,0,0,0,0,0,-0.1335,-0.1364,-0.137,-0.1325,-0.1325,-0.1387,-0.1454,-0.156,-0.152,-0.1669,-0.1643,-0.1755,-0.1725,-0.1856,-0.1707,-0.1716,-0.1751,-0.1834,-0.1828,-0.1984,-0.2007,-0.2027,-0.2001,0,0,0,0,0]},{"header":{"parameterUnit":"m.s-1","parameterCategory":2,"la1":30.2991,"la2":30.254,"lo1":-89.0895,"lo2":-89.0444,"dy":0.0017,"dx":0.0017,"nx":28,"ny":28,"refTime":"2025-12-30T03:00:00:Z","depth":"4","parameterNumber":3,"parameterNumberName":"V-component_of_CURRENTS"},"data":[0,0,0,0,0,0,0,0,0,0,0,0,0,0,0,0,0,0,0,0,0,0,0,0,0,0,0,0,0,0,0,0,0,0,0,0,0,0,0,0,0,0,0,0,0,0,0,0,0,0,0,0,0,0,0,0,0,0,-0.0245,-0.0244,0,-0.0188,-0.0187,-0.0186,-0.0148,-0.0148,-0.0147,-0.0147,-0.0067,-0.0065,-0.0063,0,0,0,0,0,0,0,0,0,0,0,0,0,-0.0261,-0.0261,-0.0245,-0.0244,-0.0243,-0.0188,-0.0187,-0.0186,-0.0148,-0.0148,-0.0147,-0.0147,-0.0068,-0.0065,-0.0063,0,0,0,0,0,0,0,0,0,0,0,0,0,-0.0234,-0.0261,-0.0245,-0.0218,-0.0215,-0.0188,-0.0187,-0.0186,-0.0148,-0.0148,-0.0147,-0.0147,-0.0068,-0.0066,-0.0063,-0.0053,0,0,-0.0054,-0.0053,0,0,0,0,0,0,0,0,-0.0235,-0.0233,-0.0222,-0.022,-0.0216,-0.0175,-0.0163,-0.014,-0.0148,-0.0173,-0.0147,-0.0147,-0.0101,-0.0096,-0.0086,-0.0049,-0.0046,-0.0054,-0.0052,-0.0051,-0.005,0,0,0,0,0,0,0,-0.0237,-0.0235,-0.0222,-0.0222,-0.0218,-0.0188,-0.0184,-0.0158,-0.014,-0.0171,-0.0168,-0.0162,-0.0099,-0.0089,-0.0084,-0.0045,-0.0054,-0.0051,-0.005,-0.0049,0.0005,0.0005,0,0,0,0,0,0,-0.0248,-0.0237,-0.0224,-0.022,-0.0225,-0.0188,-0.0184,-0.0188,-0.014,-0.0133,-0.0162,-0.0161,-0.0094,-0.0087,-0.0081,-0.0075,-0.0051,-0.0048,-0.0047,0.0005,0.0005,0.0004,0,0,0,0,0,0,-0.0249,-0.0248,-0.0226,-0.0227,-0.0222,-0.0189,-0.0194,-0.0187,-0.018,-0.0134,-0.0126,-0.0162,-0.0093,-0.0085,-0.0065,-0.0071,-0.0047,-0.0044,0.0005,0.0005,0.0005,-0.0058,0,0,0,0,0,0,-0.025,-0.0249,-0.0258,-0.0228,-0.0222,-0.0217,-0.0194,-0.0187,-0.0176,-0.0173,-0.0131,-0.0122,-0.0092,-0.007,-0.0062,-0.0067,-0.0042,0.0006,0.0005,0.0005,-0.0055,-0.006,-0.0064,0,0,0,0,0,-0.0251,-0.0265,-0.0259,-0.0257,-0.0236,-0.0218,-0.0212,-0.0186,-0.0177,-0.0177,-0.015,-0.0124,-0.0067,-0.0068,-0.0059,-0.0063,0.0006,0.0005,0.0005,-0.0053,-0.0059,-0.0064,0,0,0,0,0,0,-0.0272,-0.0262,-0.0255,-0.0264,-0.0246,-0.0211,-0.0211,-0.0193,-0.0172,-0.0171,-0.0129,-0.0119,-0.0106,-0.0076,-0.0077,-0.0049,-0.0026,-0.0025,-0.0073,-0.0078,-0.0083,-0.0095,-0.004,0,0,0,0,0,-0.0284,-0.0295,-0.0272,-0.0279,-0.0275,-0.0245,-0.0236,-0.0219,-0.0195,-0.0186,-0.0156,-0.0125,-0.0101,-0.0084,-0.006,-0.0043,-0.0008,-0.0039,-0.0043,-0.0048,-0.0051,-0.0009,-0.001,0.0002,0.0002,0.0002,0,0,-0.0292,-0.0289,-0.0294,-0.0285,-0.0271,-0.0271,-0.0239,-0.0231,-0.0229,-0.018,-0.0173,-0.0144,-0.0102,-0.0087,-0.0077,-0.0062,-0.0032,-0.0048,-0.0052,-0.0054,-0.0009,-0.0011,-0.0012,0.0002,0.0002,0.0002,0,0,-0.0315,-0.0316,-0.0331,-0.0325,-0.0311,-0.0294,-0.0296,-0.0268,-0.0255,-0.0243,-0.021,-0.0184,-0.0148,-0.0116,-0.0096,-0.011,-0.0063,-0.0103,-0.0129,-0.0088,-0.0088,-0.0089,-0.0044,-0.0039,-0.0099,-0.0099,-0.0099,0,-0.0325,-0.0345,-0.033,-0.0342,-0.0344,-0.0309,-0.0324,-0.0304,-0.0273,-0.0265,-0.0251,-0.0197,-0.0161,-0.0136,-0.014,-0.012,-0.0089,-0.0113,-0.0094,-0.0094,-0.0093,-0.0047,-0.0041,-0.0102,-0.0101,-0.0101,-0.0101,0,-0.0355,-0.0374,-0.0383,-0.0393,-0.0391,-0.0398,-0.0375,-0.0368,-0.035,-0.0325,-0.0302,-0.0252,-0.0218,-0.0201,-0.0174,-0.0151,-0.0128,-0.0111,-0.0083,-0.0098,-0.0048,-0.0041,-0.0106,-0.0105,-0.0104,-0.0103,0,0,-0.0369,-0.04,-0.0404,-0.0426,-0.0423,-0.0427,-0.0428,-0.0416,-0.0418,-0.0378,-0.0372,-0.0322,-0.029,-0.0265,-0.0223,-0.0182,-0.0145,-0.0148,-0.0144,-0.0108,-0.0051,-0.0055,-0.0047,-0.0126,-0.0125,-0.0125,-0.0018,0,-0.0396,-0.0444,-0.0446,-0.0488,-0.0511,-0.0494,-0.0502,-0.0486,-0.046,-0.0442,-0.0381,-0.036,-0.0315,-0.0301,-0.0254,-0.0179,-0.013,-0.0175,-0.0038,-0.0034,-0.0039,-0.004,-0.0122,-0.0013,-0.0011,-0.001,-0.0009,0,-0.042,-0.0455,-0.0508,-0.0552,-0.056,-0.0578,-0.059,-0.059,-0.0551,-0.0528,-0.0486,-0.0436,-0.0375,-0.0335,-0.0207,-0.024,-0.0152,-0.0085,-0.0079,-0.0057,-0.0025,0.0007,0.0004,0.0003,0.0002,0.0001,0.0,0,-0.0442,-0.0495,-0.0546,-0.0561,-0.06,-0.0622,-0.0636,-0.0619,-0.0626,-0.058,-0.0571,-0.049,-0.045,-0.034,-0.0201,-0.0205,-0.0053,-0.0038,0.0048,0.0049,0.0049,0.0048,0.0061,0.006,0.006,0.006,0.006,0,-0.0467,-0.0507,-0.0568,-0.0597,-0.0663,-0.0669,-0.0715,-0.0708,-0.0698,-0.0705,-0.0621,-0.0596,-0.045,-0.0344,-0.0217,-0.0066,-0.006,0.0043,0.0074,0.0021,0.0015,0.0054,0.0052,0.0064,0.0063,0.0062,0.0062,0,-0.0474,-0.0513,-0.0582,-0.065,-0.0678,-0.0724,-0.0784,-0.0807,-0.0786,-0.0789,-0.0779,-0.0675,-0.0537,-0.0376,-0.0187,-0.0092,0.0057,0.0117,0.0051,0.0077,0.0137,0.0131,0.021,0.021,0.0211,0.0212,0.0212,0,-0.0477,-0.0516,-0.0627,-0.0683,-0.072,-0.079,-0.0838,-0.0852,-0.0867,-0.0831,-0.0828,-0.0707,-0.0615,-0.0342,-0.0183,0.0058,0.0096,0.017,0.0149,0.0129,0.0152,0.0144,0.0137,0.0213,0.0213,0.0213,0.0213,0,-0.0484,-0.0532,-0.0594,-0.0718,-0.0793,-0.0871,-0.0931,-0.0952,-0.0951,-0.0939,-0.0846,-0.0706,-0.0545,-0.034,-0.015,0.0021,0.0111,0.0177,0.0176,0.0157,0.0134,0.0154,0.0146,0.0216,0.0215,0.0215,0.0215,0,-0.0485,-0.0538,-0.0634,-0.0736,-0.0841,-0.0918,-0.0953,-0.0961,-0.0971,-0.092,-0.0889,-0.0708,-0.0607,-0.0358,-0.0186,-0.0021,0.0017,0.0065,0.0071,0.0071,-0.0007,-0.0059,-0.001,0,0,0,0,0,-0.0475,-0.0542,-0.0646,-0.0763,-0.0868,-0.0925,-0.0999,-0.1017,-0.1019,-0.0954,-0.0918,-0.0758,-0.0499,-0.0387,-0.0219,-0.0189,0.0031,0.0009,0.0085,0.0227,0.0225,0.0156,0,0,0,0,0,0,-0.0475,-0.0567,-0.0635,-0.0758,-0.0839,-0.0943,-0.0992,-0.1,-0.0953,-0.0928,-0.0782,-0.0716,-0.0458,-0.058,-0.0209,-0.0164,-0.0095,0.013,0.0133,0.0228,0.0226,0.0224,0.0153,0,0,0,0,0]}]]